Change the Weather History Date:

Wednesday, January 16, 2013

  Actual Average Record
Temperature  
Mean Temperature 72 °F -  
Max Temperature 83 °F 81 °F 85 °F (2015)
Min Temperature 60 °F 64 °F 60 °F (1997)
Cooling Degree Days 6    
Growing Degree Days 22 (Base 50)    
Moisture  
Dew Point 57 °F    
Average Humidity 59    
Maximum Humidity 78    
Minimum Humidity 37    
Precipitation  
Precipitation 0.00 in 0.01 in - ()
Sea Level Pressure  
Sea Level Pressure 29.94 in    
Wind  
Wind Speed 8 mph ()    
Max Wind Speed 15 mph    
Max Gust Speed 23 mph    
Visibility 8.5 miles    
Events      
Averages and records for this station are not official NWS values.
T = Trace of Precipitation, MM = Missing Value Source: Averaged Metar Reports

Daily Weather History Graph

Daily Weather History Graph

Search for Another Location

Airport or City:

Trip Planner

Search our weather history database for the weather conditions in past years. The results will help you decide how hot, cold, wet, or windy it might be!

Date:

Astronomy

Jan. 16, 2013 Rise Set
Actual Time 5:58 AM CST 5:35 PM CST
Civil Twilight 5:36 AM CST 5:57 PM CST
Nautical Twilight 5:10 AM CST 6:23 PM CST
Astronomical Twilight 4:44 AM CST 6:49 PM CST
Moon 9:42 AM CST (1/16) 10:11 PM CST (1/16)
Length of Visible Light 12h 21m
Length of Day
11h 36m
Waxing Crescent, 28% of the Moon is Illuminated
Jan 16
Waxing Crescent
Jan 18
First Quarter
Jan 26
Full
Feb 3
Last Quarter
Feb 10
New

Hourly Weather History & Observations

Time (CST) Temp. Heat Index Dew Point Humidity Pressure Visibility Wind Dir Wind Speed Gust Speed Precip Events Conditions
12:00 AM 64.4 °F - 53.6 °F 68% 29.97 in - ENE 5.8 mph - N/A   Clear
1:00 AM 62.6 °F - 51.8 °F 68% 29.96 in - ENE 10.4 mph - N/A   Clear
2:00 AM 60.8 °F - 46.4 °F 59% 29.96 in - NE 8.1 mph - N/A   Clear
3:00 AM 64 °F - 48 °F 45% 29.79 in 12 mi ENE 5.8 mph - -  
3:00 AM 64.4 °F - 48.2 °F 56% 29.95 in - ENE 5.8 mph - N/A   Clear
4:00 AM 62.6 °F - 51.8 °F 68% 29.95 in - East 5.8 mph - N/A   Clear
5:00 AM 64.4 °F - 53.6 °F 68% 29.96 in - ENE 6.9 mph - N/A   Clear
6:00 AM 66.2 °F - 51.8 °F 60% 29.97 in - ENE 13.8 mph - N/A   Clear
7:00 AM 66.2 °F - 57.2 °F 73% 29.99 in - East 8.1 mph - N/A   Clear
8:00 AM 73.4 °F - 57.2 °F 57% 30.01 in - East 5.8 mph - N/A   Clear
9:00 AM 77 °F - 56 °F 37% 29.85 in 12 mi East 6.9 mph - -  
9:00 AM 77.0 °F - 55.4 °F 47% 30.01 in - East 6.9 mph - N/A   Clear
10:00 AM 82.4 °F 81.4 °F 53.6 °F 37% 30.00 in - SE 5.8 mph - N/A   Clear
11:00 AM 78.8 °F - 59.0 °F 51% 29.97 in 6.2 mi WSW 8.1 mph - N/A   Partly Cloudy
12:00 PM 80 °F - 65 °F 50% 29.79 in 12 mi SW 8.1 mph - -   Partly Cloudy
12:00 PM 80.6 °F 81.1 °F 59.0 °F 48% 29.95 in 6.2 mi SW 8.1 mph - N/A   Scattered Clouds
1:00 PM 80.6 °F 81.5 °F 60.8 °F 51% 29.94 in 6.2 mi SW 10.4 mph - N/A   Scattered Clouds
2:00 PM 78.8 °F - 64.4 °F 61% 29.93 in 6.2 mi West 8.1 mph - N/A   Mostly Cloudy
3:00 PM 78 °F - 65 °F 57% 29.77 in 12 mi WSW 15.0 mph - -   Partly Cloudy
3:00 PM 78.8 °F - 66.2 °F 65% 29.93 in 6.2 mi WSW 15.0 mph - N/A   Mostly Cloudy
4:00 PM 75.2 °F - 66.2 °F 73% 29.94 in 6.2 mi WSW 11.5 mph - N/A   Mostly Cloudy
5:00 PM 73.4 °F - 66.2 °F 78% 29.97 in 6.2 mi WSW 10.4 mph - N/A   Mostly Cloudy
6:00 PM 72 °F - 60 °F 58% 29.86 in 12 mi SSE 9.2 mph - -   Overcast
6:00 PM 71.6 °F - 60.8 °F 69% 29.99 in 6.2 mi SSE 9.2 mph - N/A   Mostly Cloudy
7:00 PM 71.6 °F - 59.0 °F 64% 30.00 in 6.2 mi East 13.8 mph - N/A   Mostly Cloudy
8:00 PM 71.6 °F - 55.4 °F 57% 30.02 in - East 11.5 mph - N/A   Clear
9:00 PM 70 °F - 56 °F 52% 29.87 in 12 mi East 8.1 mph - -   Scattered Clouds
9:00 PM 69.8 °F - 57.2 °F 64% 30.02 in - East 8.1 mph - N/A   Clear
10:00 PM 69.8 °F - 57.2 °F 64% 30.01 in - East 10.4 mph - N/A   Clear
11:00 PM 69.8 °F - 55.4 °F 60% 29.99 in - ESE 11.5 mph 23.0 mph N/A   Clear